Regional Weather Roundup
Issued by NWS

Home | Current Version | Previous Version | Text Only | Print | Product List | Glossary On
Versions: 1 2 3 4 5 6 7 8 9 10 11 12 13 14 15 16 17 18 19 20 21 22 23 24 25 26 27 28 29 30 31 32 33 34 35 36 37 38 39 40 41 42 43 44 45 46 47 48 49 50
000
ASUS44 KBMX 172010
RWRAL

ALABAMA REGIONAL WEATHER ROUNDUP
NATIONAL WEATHER SERVICE BIRMINGHAM AL
200 PM CST SAT FEB 17 2018

NOTE: "FAIR" INDICATES FEW OR NO CLOUDS BELOW 12,000 FEET
WITH NO SIGNIFICANT WEATHER AND/OR OBSTRUCTIONS TO VISIBILITY.

THE REMARK "TC" DENOTES TEMPERATURE IN DEGREES CELSIUS.

ALZ001>011-014-016>018-020-172100-
NORTH ALABAMA

CITY           SKY/WX    TMP DP  RH WIND       PRES   REMARKS
MUSCLE SHOALS  LGT RAIN  48  44  86 NW10      30.11R
HUNTSVILLE     DRIZZLE   56  56 100 NW8       30.05R
DECATUR        CLOUDY    52  50  93 N8        30.06R
HALEYVILLE     CLOUDY    58  58 100 SW10G18   30.08R
GADSDEN        LGT RAIN  71  59  65 SW13      30.07R
$$

ALZ012-013-022-023-030>036-040>044-172100-
WEST CENTRAL ALABAMA

CITY           SKY/WX    TMP DP  RH WIND       PRES   REMARKS
TUSCALOOSA     PTSUNNY   74  62  66 S7        30.07F
DEMOPOLIS        N/A     78  58  49 SW15G22   30.08F
$$

ALZ015-024>026-033>036-041>044-172100-
CENTRAL ALABAMA

CITY           SKY/WX    TMP DP  RH WIND       PRES   REMARKS
BIRMINGHAM     CLOUDY    71  58  63 W9G21     30.11S
MONTGOMERY     FAIR      79  59  50 SW13G24   30.11F
SHELBY CO ARPT FAIR      71  60  68 SW12      30.11R
MAXWELL AFB    FAIR      79  59  50 SW14G22   30.10F
GREENVILLE     FAIR      79  55  43 SW16G23   30.11F
SELMA          FAIR      77  59  53 SW12G20   30.10F
PRATTVILLE     FAIR      75  60  58 SW15G23   30.11F
BESSEMER       CLOUDY    69  60  73 SW8       30.11R
TALLADEGA      CLOUDY    73  60  63 SW21      30.09S
PELL CITY      PTCLDY    72  61  68 SW14      30.08S
MARION         MOCLDY    75  61  61 MISG      30.09F
SYLACAUGA      FAIR      75  63  65 SW18G24   30.10F
$$

ALZ019-021-028-029-037-038-045>048-172100-
EAST CENTRAL ALABAMA

CITY           SKY/WX    TMP DP  RH WIND       PRES   REMARKS
ANNISTON       PTSUNNY   73  59  61 SW20G29   30.08F
ALEXANDER CITY FAIR      73  63  70 SW20G25   30.12S
AUBURN         CLOUDY    75  58  55 W12G18    30.12F
$$

ALZ051>064-172100-
SOUTHWEST ALABAMA

CITY           SKY/WX    TMP DP  RH WIND       PRES   REMARKS
MOBILE         FAIR      77  63  61 SW8       30.13F
BROOKLEY FIELD FAIR      81  63  54 SW7G21    30.14F
EVERGREEN      CLOUDY    78  58  49 VRB7G17   30.12F
$$

ALZ049-050-065>069-172100-
SOUTHEAST ALABAMA

CITY           SKY/WX    TMP DP  RH WIND       PRES   REMARKS
DOTHAN         PTSUNNY   78  62  57 SW12      30.16F
OZARK          FAIR      78  61  56 W13       30.12S
TROY           PTSUNNY   76  59  55 SW12G20   30.13F
EUFAULA        FAIR      82  59  45 W14G23    30.10F
$$



USA.gov is the U.S. government's official web portal to all federal, state and local government web resources and services.